sat.trackr.live / text

‹ back to catalog

STARLINK-36494

NORAD 67331 · 2026-002AC

PAYLOAD ACTIVE UNKNOWN

§ Identity

Operator
Country
US
Launch date
2026-01-04
Launch site
AFETR
Launch vehicle
Mass (kg)
RCS (m²)

Purposes: comms

External: N2YO · Heavens-Above · Gunter

§ Orbital elements

Epoch: 2026-05-25T00:41:35.084256Z

Period
94.27 min
Inclination
43.0018°
Eccentricity
0.0001990
Mean motion
15.27590018 rev/d
Perigee alt
481.7 km
Apogee alt
484.4 km
Semi-major
6,861.2 km
B*
6.7836e-4
RAAN
254.1709°
Arg perigee
283.4752°
Mean anomaly
76.5878°
Rev number
2,291

§ Raw data

STARLINK-364941 67331U 26002AC  26145.02887829  .00018458  00000+0  67836-3 0  99902 67331  43.0018 254.1709 0001990 283.4752  76.5878 15.27590018 22919

JSON: /api/v1/satellites/67331 · /tle

For live sub-satellite position, see the globe view (requires WebGL).

§ Visibility from observer

Set your observer location to see the next 7 days of passes ≥ 10°. The values pass through the URL so the page stays shareable.

No JS? Fill the form by hand. The geolocation button needs JavaScript.